Weather reports worldwide

Advertisment
Lille, France (7015): temperature & dewpoint: 10.12.2019 03:00:00 - 16.12.2019 03:00:00 (CET)Lille, France (7015): temperature 5cm: 10.12.2019 03:00:00 - 16.12.2019 03:00:00 (CET)Lille, France (7015): temperature -20cm & temperature -100cm: 10.12.2019 03:00:00 - 16.12.2019 03:00:00 (CET)Lille, France (7015): wind speed & gusts: 10.12.2019 03:00:00 - 16.12.2019 03:00:00 (CET)Lille, France (7015): wind direction: 10.12.2019 03:00:00 - 16.12.2019 03:00:00 (CET)Lille, France (7015): reduced air pressure: 10.12.2019 03:00:00 - 16.12.2019 03:00:00 (CET)Lille, France (7015): visibility: 10.12.2019 03:00:00 - 16.12.2019 03:00:00 (CET)Lille, France (7015): precipitation: 10.12.2019 03:00:00 - 16.12.2019 03:00:00 (CET)
Date & Time tt [°C] td [°C] tt 5cm [°C] tt -20cm [°C] tt -100cm [°C] ff [km/h] ff [kn] fx [km/h] fx [kn] dd ppp [hPa] vv [km] rr [mm]
16.12.2019 03:00:00 - - - - - - - - - - - - -
16.12.2019 02:00:00 6,3 4,6 5,4 5,4 8,4 16 9 27 14 SSE 1004,4 31 0,0
16.12.2019 01:00:00 5,8 3,8 4,5 5,5 8,4 18 10 27 14 S 1004,5 33 0,0
16.12.2019 00:00:00 4,8 3,3 3,4 5,5 8,4 16 9 23 12 S 1004,8 18 0,0
15.12.2019 23:00:00 4,6 2,6 4,0 5,7 8,4 11 6 22 12 SSE 1005,1 18 0,0
15.12.2019 22:00:00 6,0 3,2 5,2 5,8 8,4 13 7 34 18 SSE 1005,2 20 0,0
15.12.2019 21:00:00 6,1 3,3 5,0 5,9 8,4 20 11 32 17 S 1005,1 30 0,0
15.12.2019 20:00:00 6,0 2,8 4,9 6,1 8,4 22 12 32 17 S 1005,0 34 0,0
15.12.2019 19:00:00 5,9 2,5 4,9 6,2 8,4 20 11 37 20 S 1004,7 34 0,0
15.12.2019 18:00:00 6,6 2,7 5,8 6,5 8,4 23 12 35 19 S 1004,4 37 0,0
15.12.2019 17:00:00 7,0 2,5 6,2 6,6 8,4 21 11 44 24 SSW 1004,2 42 0,0
15.12.2019 16:00:00 8,2 2,4 8,0 6,7 8,4 26 14 46 25 SSW 1003,5 40 0,0
15.12.2019 15:00:00 8,9 2,9 9,2 6,6 8,4 29 16 55 30 SSW 1002,9 14 0,0
15.12.2019 14:00:00 9,4 3,1 10,2 6,4 8,4 29 16 53 28 SSW 1002,3 19 0,0
15.12.2019 13:00:00 9,7 3,6 9,5 6,2 8,4 32 17 53 29 SW 1002,0 15 0,0
15.12.2019 12:00:00 8,9 3,7 8,9 6,1 8,4 29 16 48 26 SSW 1001,7 19 0,0
15.12.2019 11:00:00 7,9 3,5 6,7 6,0 8,5 26 14 43 23 SSW 1001,1 26 0,0
15.12.2019 10:00:00 6,8 3,8 5,7 6,1 8,4 22 12 41 22 SW 1000,1 21 0,0
15.12.2019 09:00:00 6,9 4,0 5,4 6,2 8,4 23 13 41 22 SW 999,2 40 0,0
15.12.2019 08:00:00 7,2 3,8 6,5 6,4 8,4 22 12 37 20 SW 998,0 38 0,0
15.12.2019 07:00:00 7,8 4,2 6,9 6,4 8,5 26 14 51 28 SW 996,6 54 0,0
15.12.2019 06:00:00 8,6 5,5 7,3 6,3 8,4 33 18 61 33 WSW 995,1 20 0,0
15.12.2019 05:00:00 8,9 6,5 7,8 6,2 8,5 41 22 79 43 WSW 993,8 15 1,2
15.12.2019 04:00:00 9,4 7,7 8,1 6,0 8,5 30 16 58 31 SSW 992,2 60 0,2
15.12.2019 03:00:00 8,8 7,2 7,7 5,8 8,5 34 18 52 28 S 991,8 28 0,0
15.12.2019 02:00:00 7,9 6,0 6,5 5,6 8,5 31 17 54 29 S 992,7 34 0,0
15.12.2019 01:00:00 7,5 5,3 6,5 5,6 8,5 36 19 53 29 S 993,7 10 0,0
15.12.2019 00:00:00 6,9 3,9 6,0 5,6 8,5 26 14 42 23 S 994,9 43 0,0
14.12.2019 23:00:00 6,5 3,1 6,0 5,6 8,5 19 10 33 18 S 996,3 49 0,0
14.12.2019 22:00:00 6,7 3,3 6,1 5,6 8,5 24 13 38 20 S 997,8 44 0,0
14.12.2019 21:00:00 6,8 3,4 5,9 5,6 8,5 25 14 42 23 S 998,7 34 0,0
14.12.2019 20:00:00 6,7 2,8 4,5 5,7 8,5 29 16 45 24 SSW 999,1 18 0,0
14.12.2019 19:00:00 5,7 1,6 4,6 5,9 8,5 18 10 27 15 SSW 999,1 16 0,0
14.12.2019 18:00:00 7,4 1,7 5,8 6,0 8,5 18 10 40 22 SW 998,5 18 0,0
14.12.2019 17:00:00 7,3 1,4 6,0 6,2 8,5 23 12 53 29 WSW 998,0 20 0,0
14.12.2019 16:00:00 7,8 2,0 6,6 6,2 8,5 38 20 78 42 WSW 997,0 25 0,0
14.12.2019 15:00:00 8,7 2,3 7,8 6,1 8,5 45 24 69 37 WSW 995,2 15 0,0
14.12.2019 14:00:00 8,5 5,4 6,6 5,9 8,5 40 21 60 32 SSW 993,8 20 0,0
14.12.2019 13:00:00 6,7 5,6 5,8 5,8 8,5 22 12 40 22 SW 994,6 8 3,2
14.12.2019 12:00:00 6,8 4,6 5,8 5,7 8,5 36 19 64 35 SW 994,6 4,4 0,8
14.12.2019 11:00:00 7,6 2,7 6,2 5,6 8,5 20 11 31 17 SSW 994,2 20 0,0
14.12.2019 10:00:00 6,6 1,1 5,7 5,6 8,5 23 12 55 30 W 993,8 24 0,0
14.12.2019 09:00:00 6,5 0,4 5,2 5,8 8,5 36 19 75 41 W 992,6 55 0,0
14.12.2019 08:00:00 6,5 3,5 4,9 5,8 8,5 36 19 81 44 WSW 990,6 60 0,6
14.12.2019 07:00:00 5,8 3,8 4,2 5,9 8,5 20 11 34 19 WSW 989,1 60 0,0
14.12.2019 06:00:00 5,0 3,7 4,1 6,0 8,5 23 12 44 24 WSW 988,2 60 0,0
14.12.2019 05:00:00 5,5 4,0 4,9 6,0 8,5 35 19 74 40 WNW 985,9 48 0,0
14.12.2019 04:00:00 9,5 7,1 7,3 5,8 8,5 42 23 66 36 WSW 981,4 17 0,2
14.12.2019 03:00:00 7,7 6,8 6,0 5,7 8,5 27 15 50 27 SSW 979,9 31 0,0
14.12.2019 02:00:00 6,4 5,3 5,4 5,6 8,5 31 17 46 25 S 981,1 14 0,0
14.12.2019 01:00:00 5,8 4,6 5,0 5,6 8,5 26 14 44 24 S 983,1 20 0,0
14.12.2019 00:00:00 5,6 3,8 4,5 5,6 8,5 28 15 43 23 SSW 984,7 20 0,2
13.12.2019 23:00:00 5,7 2,9 5,1 5,7 8,5 28 15 42 23 SSW 985,7 20 0,0
13.12.2019 22:00:00 5,5 2,8 4,8 5,7 8,5 22 12 42 23 S 985,9 19 0,0
13.12.2019 21:00:00 5,7 2,3 4,8 5,9 8,5 16 9 31 17 SSW 987,4 20 0,0
13.12.2019 20:00:00 5,6 1,9 3,6 6,0 8,5 15 8 20 11 SW 987,3 35 0,0
13.12.2019 19:00:00 6,5 2,6 5,5 6,2 8,5 12 6 36 19 SW 987,5 24 0,0
13.12.2019 18:00:00 7,5 2,6 6,8 6,2 8,5 29 16 46 25 W 987,3 43 0,0
13.12.2019 17:00:00 7,3 3,2 6,9 6,2 8,5 25 14 39 21 W 986,4 41 0,0
13.12.2019 16:00:00 7,5 3,4 7,0 6,2 8,5 25 14 47 25 W 985,5 48 0,0
13.12.2019 15:00:00 7,5 3,7 6,6 6,1 8,6 29 16 53 29 W 984,0 46 0,0
13.12.2019 14:00:00 7,3 4,6 5,9 6,0 8,5 36 19 55 30 W 982,3 33 0,0
13.12.2019 13:00:00 6,4 5,0 5,7 6,0 8,6 41 22 61 33 W 981,0 17 1,0
13.12.2019 12:00:00 6,0 4,6 5,0 6,0 8,6 37 20 61 33 W 979,4 14 0,8
13.12.2019 11:00:00 5,5 4,0 4,7 6,0 8,6 40 22 82 45 W 977,6 13 1,4
13.12.2019 10:00:00 5,8 4,6 5,2 6,0 8,6 29 15 63 34 W 975,9 8 1,2
13.12.2019 09:00:00 6,2 4,5 5,5 6,0 8,6 37 20 59 32 W 974,3 13 0,2
13.12.2019 08:00:00 6,4 4,7 5,6 5,9 8,6 32 18 61 33 W 972,9 33 0,2
13.12.2019 07:00:00 6,8 5,4 6,1 5,9 8,6 27 14 54 29 W 972,0 11 0,2
13.12.2019 06:00:00 7,1 5,7 6,3 5,8 8,6 27 15 45 25 SW 971,1 19 0,0
13.12.2019 05:00:00 7,1 5,6 6,3 5,8 8,6 21 11 49 26 SW 971,0 38 0,2
13.12.2019 04:00:00 7,0 6,4 6,4 5,7 8,6 26 14 40 21 SSE 971,8 8 1,0
13.12.2019 03:00:00 6,7 6,0 6,0 5,6 8,6 25 13 42 23 S 973,4 10 2,6
13.12.2019 02:00:00 6,2 5,6 5,1 5,5 8,6 24 13 41 22 S 975,5 8 0,0
13.12.2019 01:00:00 5,3 4,7 4,9 5,5 8,6 22 12 37 20 SSE 977,4 30 0,6
13.12.2019 00:00:00 5,2 4,3 4,7 5,4 8,6 29 16 48 26 S 979,5 19 0,0
12.12.2019 23:00:00 5,3 4,1 4,6 5,4 8,6 29 16 61 33 S 980,9 18 0,2
12.12.2019 22:00:00 5,2 3,7 4,6 5,4 8,6 38 21 68 37 SSE 982,0 15 0,2
12.12.2019 21:00:00 5,3 3,9 4,8 5,3 8,6 39 21 64 35 SSE 983,1 14 1,8
12.12.2019 20:00:00 5,3 4,1 4,7 5,3 8,6 39 21 64 35 SSE 984,8 8 1,6
12.12.2019 19:00:00 5,1 4,1 4,3 5,2 8,6 38 21 60 32 SSE 986,8 10 0,2
12.12.2019 18:00:00 4,7 3,5 4,1 5,2 8,6 38 20 61 33 SSE 988,4 11 0,2
12.12.2019 17:00:00 4,6 3,3 4,1 5,2 8,6 35 19 61 33 SSE 990,1 8 0,0
12.12.2019 16:00:00 4,9 2,6 4,8 5,1 8,6 36 19 59 32 SSE 991,6 42 0,0
12.12.2019 15:00:00 4,9 2,4 5,1 5,0 8,6 37 20 59 32 SSE 993,4 33 0,0
12.12.2019 14:00:00 4,8 2,3 4,9 4,8 8,6 32 17 50 27 SSE 995,6 31 0,0
12.12.2019 13:00:00 4,4 2,3 4,6 4,6 8,6 29 16 48 26 S 997,7 21 0,0
12.12.2019 12:00:00 3,9 2,3 3,7 4,4 8,6 26 14 44 24 S 999,4 23 0,0
12.12.2019 11:00:00 3,4 1,8 3,0 4,4 8,6 22 12 35 19 S 1000,9 33 0,0
12.12.2019 10:00:00 2,4 1,2 0,6 4,4 8,6 19 11 30 16 S 1002,1 27 0,0
12.12.2019 09:00:00 1,3 0,6 0,2 4,6 8,7 14 8 21 11 S 1002,6 27 0,0
12.12.2019 08:00:00 1,4 0,7 0,2 4,8 8,7 13 7 19 11 S 1003,1 30 0,0
12.12.2019 07:00:00 1,4 1,0 -1,1 5,0 8,7 12 7 18 10 S 1003,4 20 0,0
12.12.2019 06:00:00 0,3 -0,7 -1,6 5,2 8,6 12 6 16 9 S 1003,8 20 0,0
12.12.2019 05:00:00 2,0 1,1 1,1 5,5 8,6 8 4 19 10 SSW 1003,8 29 0,0
12.12.2019 04:00:00 2,4 1,2 1,7 5,7 8,7 15 8 22 12 SW 1004,0 53 0,0
12.12.2019 03:00:00 3,5 2,0 2,5 5,8 8,7 14 8 22 12 SW 1004,1 60 0,0
12.12.2019 02:00:00 3,6 2,1 2,8 5,9 8,7 14 8 24 13 SW 1003,9 60 0,0
12.12.2019 01:00:00 4,6 3,1 4,0 5,9 8,6 12 7 22 12 SW 1003,9 60 0,2
12.12.2019 00:00:00 5,0 3,5 4,5 6,0 8,7 17 9 30 16 SW 1004,0 20 0,2
11.12.2019 23:00:00 5,5 3,5 4,9 6,0 8,7 22 12 31 17 SSW 1004,0 58 0,2
11.12.2019 22:00:00 5,7 3,9 5,0 6,0 8,7 19 11 37 20 SSW 1004,2 19 0,0
11.12.2019 21:00:00 6,0 4,0 5,3 6,1 8,7 24 13 36 19 S 1004,1 20 0,0
11.12.2019 20:00:00 5,7 3,9 4,8 6,3 8,7 22 12 34 18 S 1004,2 39 0,0
11.12.2019 19:00:00 5,6 3,8 4,9 6,4 8,7 19 10 32 17 S 1004,4 37 0,0
11.12.2019 18:00:00 5,8 4,1 5,1 6,6 8,7 16 8 25 14 S 1004,9 20 0,0
11.12.2019 17:00:00 6,3 4,5 5,7 6,7 8,7 13 7 24 13 S 1005,2 20 0,0
11.12.2019 16:00:00 7,5 5,0 7,4 6,7 8,7 15 8 26 14 SSW 1005,4 36 0,0
11.12.2019 15:00:00 7,6 5,6 7,4 6,7 8,7 15 8 21 11 SSW 1006,0 36 0,0
11.12.2019 14:00:00 7,5 5,8 7,0 6,5 8,7 11 6 31 17 SSW 1006,4 33 0,0
11.12.2019 13:00:00 7,7 6,3 7,6 6,4 8,7 12 7 19 10 S 1007,1 18 0,0
11.12.2019 12:00:00 7,3 6,1 7,1 6,2 8,7 11 6 19 10 SSW 1007,9 18 0,0
11.12.2019 11:00:00 7,0 6,1 6,6 6,1 8,7 11 6 15 8 S 1008,6 19 0,0
11.12.2019 10:00:00 6,6 6,2 6,1 6,1 8,7 6 3 16 9 SSW 1009,0 18 0,0
11.12.2019 09:00:00 6,4 5,8 6,0 6,0 8,7 12 7 24 13 S 1009,3 20 0,0
11.12.2019 08:00:00 6,4 6,0 6,0 6,0 8,7 10 5 19 11 SSE 1009,4 29 0,0
11.12.2019 07:00:00 6,5 6,1 6,2 6,0 8,7 8 4 21 11 S 1009,8 18 0,4
11.12.2019 06:00:00 6,6 6,2 6,2 5,9 8,7 16 8 26 14 S 1010,0 16 0,4
11.12.2019 05:00:00 6,5 6,1 6,1 5,9 8,7 17 9 31 17 S 1010,2 12 0,4
11.12.2019 04:00:00 6,6 6,0 6,1 5,8 8,7 22 12 38 20 S 1010,5 13 1,0
11.12.2019 03:00:00 6,6 5,7 6,2 5,8 8,7 26 14 50 27 SSW 1010,8 12 0,0
11.12.2019 02:00:00 6,8 4,9 6,5 5,7 8,7 33 18 55 30 S 1011,1 32 0,0
11.12.2019 01:00:00 6,7 4,7 6,5 5,6 8,7 36 20 58 32 S 1011,1 19 0,0
11.12.2019 00:00:00 6,8 3,9 6,6 5,6 8,7 39 21 61 33 S 1011,7 32 0,0
10.12.2019 23:00:00 6,9 3,5 6,7 5,5 8,7 41 22 69 37 S 1012,1 37 0,0
10.12.2019 22:00:00 7,1 3,3 6,8 5,5 8,7 39 21 72 39 S 1012,1 43 0,0
10.12.2019 21:00:00 7,2 3,4 6,9 5,4 8,7 43 23 63 34 S 1013,4 38 0,0
10.12.2019 20:00:00 7,1 3,0 6,7 5,3 8,7 41 22 64 34 S 1014,4 41 0,0
10.12.2019 19:00:00 7,0 2,9 6,5 5,2 8,8 36 19 65 35 S 1015,1 43 0,0
10.12.2019 18:00:00 6,8 2,5 6,2 5,1 8,7 35 19 59 32 S 1016,0 39 0,0
10.12.2019 17:00:00 6,7 2,4 6,2 5,0 8,7 36 19 56 30 S 1017,0 39 0,0
10.12.2019 16:00:00 6,5 2,4 6,4 4,9 8,7 32 17 54 29 S 1018,4 38 0,0
10.12.2019 15:00:00 6,6 2,5 6,6 4,8 8,8 31 17 53 28 S 1019,9 39 0,0
10.12.2019 14:00:00 6,5 2,4 6,5 4,5 8,8 32 17 50 27 S 1021,0 22 0,0
10.12.2019 13:00:00 5,7 1,8 5,6 4,2 8,7 32 17 48 26 S 1022,4 46 0,0
10.12.2019 12:00:00 4,9 1,2 4,8 4,0 8,7 29 16 45 25 S 1023,6 40 0,0
10.12.2019 11:00:00 4,1 0,8 3,7 4,0 8,7 23 13 36 19 S 1024,7 59 0,0
10.12.2019 10:00:00 2,6 -0,7 1,5 4,1 8,7 16 9 26 14 S 1025,2 48 0,0
10.12.2019 09:00:00 1,6 -1,1 -0,1 4,1 8,7 16 9 23 12 S 1025,7 48 0,0
10.12.2019 08:00:00 0,7 -1,5 -1,0 4,3 8,7 14 8 21 11 S 1026,1 40 0,0
10.12.2019 07:00:00 -0,1 -1,8 -1,6 4,4 8,7 10 6 13 7 S 1026,3 50 0,0
10.12.2019 06:00:00 -0,1 -1,2 -3,0 4,6 8,8 3 1 5 3 S 1026,5 36 0,0
10.12.2019 05:00:00 0,2 -1,2 -2,5 4,8 8,7 2 1 13 7 SE 1026,5 34 0,0
10.12.2019 04:00:00 0,5 -1,3 -1,8 5,0 8,7 6 3 11 6 WSW 1026,7 33 0,0
10.12.2019 03:00:00 0,2 -1,2 -1,5 5,2 8,7 9 5 14 8 WSW 1026,2 35 0,0

tt = temperature
td = dewpoint
tt 5cm = temperature 5cm
tt -20cm = temperature -20cm
tt -100cm = temperature -100cm
ff = wind speed
fx = gusts
dd = wind direction
ppp = reduced air pressure
vv = visibility
rr = precipitation

Next stations